Wind_Speed
36 36 36 37 37 38 39 40 41 41 41 41 42 43 43 43 42 42 42 42 41 41 42 41 41 40 40 40 40 41 42 43 43 43 44 44 44 44 44 45 45 45 46 46
37 37 37 38 38 39 39 40 41 41 41 41 42 43 43 43 42 42 42 42 42 42 42 42 41 40 39 39 40 40 40 41 40 40 41 41 42 42 42 43 43 44 44 45
38 38 39 39 39 39 40 40 41 41 41 41 42 43 43 42 42 43 42 42 41 41 41 40 40 39 39 39 38 38 37 37 37 37 37 38 39 40 41 41 41 42 43 43
39 40 40 40 39 40 40 39 40 40 41 41 42 42 43 43 43 42 42 41 40 39 39 39 39 38 38 37 36 35 35 35 35 35 34 35 35 36 37 38 39 40 40 41
41 42 42 40 40 40 40 38 39 40 40 41 42 42 42 42 42 42 41 40 39 39 38 38 37 36 36 35 34 34 33 33 33 33 33 33 34 34 35 36 36 37 38 39
42 43 43 41 41 40 40 39 39 39 40 41 42 41 41 41 41 40 39 39 38 37 37 36 35 34 34 33 33 32 32 32 32 32 32 32 32 33 33 33 34 35 36 36
42 42 41 41 40 40 39 40 39 39 40 40 41 41 40 40 40 39 38 37 36 36 35 35 34 33 32 31 31 31 31 31 31 32 32 32 32 32 32 32 32 33 33 33
41 41 40 40 39 39 39 39 39 39 39 40 40 40 39 39 38 37 36 35 35 35 34 34 34 33 32 30 30 31 31 31 31 31 31 31 31 31 31 30 31 31 30 30
40 39 39 39 38 39 39 39 38 39 39 39 39 38 38 38 37 36 35 35 34 34 34 34 33 33 32 31 30 30 31 31 31 31 30 30 30 30 30 29 29 29 29 29
39 38 38 38 39 39 39 38 38 39 39 39 39 38 37 36 36 35 34 34 34 35 34 34 34 33 32 31 31 30 30 30 30 30 30 30 30 30 30 29 28 28 29 29
38 38 38 38 38 38 38 38 38 38 38 38 38 37 36 35 35 35 35 35 35 34 34 34 33 32 31 31 30 30 29 29 29 30 29 30 30 29 29 29 28 27 27 28
37 37 38 37 37 38 38 38 37 37 36 36 36 36 35 36 36 36 35 35 34 34 33 33 32 31 30 29 28 29 29 29 29 29 29 29 29 29 29 28 27 26 26 27
37 37 37 37 37 37 36 36 36 36 36 36 36 36 36 35 35 35 35 34 34 33 33 32 31 30 29 29 28 28 28 28 28 27 27 27 26 26 26 27 27 26 26 26
36 36 36 36 36 36 35 35 35 36 36 36 36 36 35 35 35 35 34 34 33 33 32 31 30 29 29 29 29 29 28 28 27 27 27 26 25 25 25 25 26 27 27 27
36 36 35 35 35 35 35 35 35 36 36 36 35 35 35 34 34 34 33 33 32 32 31 30 29 29 28 29 28 28 28 28 27 27 26 26 25 25 25 25 25 25 26 27
34 34 35 35 35 35 35 35 36 36 35 35 35 35 34 33 33 33 32 32 31 30 30 29 29 29 28 27 26 27 27 27 27 26 26 26 25 25 25 25 25 25 26 26
33 33 34 35 35 35 36 35 35 35 35 35 34 34 34 33 33 33 33 32 31 30 29 29 28 28 27 26 25 25 25 25 25 24 24 24 24 24 24 25 25 26 25 25
32 33 34 34 35 35 35 35 35 34 34 34 34 33 33 33 33 33 32 32 31 30 29 29 28 27 26 25 24 24 23 23 23 22 22 22 22 22 22 23 23 24 25 25
33 33 34 34 35 35 35 35 34 34 33 33 33 33 33 33 33 32 32 31 31 30 29 28 27 27 26 24 24 23 22 22 21 21 20 20 20 20 20 21 21 22 22 24
33 34 34 35 35 34 34 34 33 32 32 32 32 32 32 32 32 31 31 31 30 29 28 27 26 25 24 23 23 22 21 21 20 19 18 18 18 18 19 19 20 20 21 22
33 34 34 34 34 34 33 33 32 31 31 31 30 31 31 31 31 31 30 29 29 28 27 27 26 25 23 23 22 21 20 19 18 18 17 17 17 18 18 18 19 19 20 20
34 34 34 34 33 33 33 32 31 31 30 30 30 31 31 31 30 30 29 28 27 26 26 25 24 23 22 21 20 20 19 18 17 17 17 16 16 17 17 17 17 18 18 19
33 34 34 33 32 32 32 31 31 31 31 30 31 31 31 30 29 29 28 27 26 26 25 25 23 22 20 20 19 19 18 18 17 16 16 16 16 16 16 17 17 17 18 19
33 33 33 33 32 32 32 32 32 31 31 30 30 30 30 30 29 28 27 26 26 25 25 23 22 21 20 20 19 19 18 18 17 17 17 16 16 16 16 16 17 17 18 18
32 32 32 32 32 31 31 31 31 31 30 30 30 30 30 29 28 27 26 26 25 24 24 23 22 21 20 20 19 19 18 18 17 17 17 17 16 16 16 16 16 16 17 17
32 32 32 31 31 31 31 31 31 30 30 30 30 30 29 28 27 26 25 24 24 24 23 22 22 21 20 20 19 19 18 18 17 17 16 16 16 16 16 15 16 16 16 16
31 31 31 30 30 30 30 30 30 30 29 29 29 28 27 26 25 25 24 23 23 23 23 22 22 21 20 20 19 18 17 17 16 16 16 16 16 16 16 16 16 15 15 15
Wind_Direction
304 303 302 301 301 301 301 302 302 304 303 304 303 302 300 300 299 299 298 297 296 294 292 290 289 286 283 281 278 276 275 274 273 271 269 267 265 263 263 263 262 261 261 260
303 303 301 301 301 301 302 302 303 303 303 304 303 302 302 301 301 300 300 298 296 295 293 291 289 287 285 284 281 278 277 275 274 272 271 268 266 263 262 262 262 261 260 259
303 303 303 303 304 303 302 302 302 303 304 304 304 304 303 303 301 300 300 299 297 296 294 291 289 287 286 285 283 280 278 276 275 273 271 269 267 265 263 262 262 262 261 259
303 303 303 306 305 304 304 303 302 303 304 305 305 305 304 303 302 301 301 299 298 298 296 293 290 287 286 285 283 281 278 276 276 275 273 271 269 268 265 263 262 262 262 260
304 304 305 306 306 305 305 304 303 304 304 305 305 305 304 303 303 303 302 301 300 299 298 295 292 289 287 284 283 281 279 277 276 276 275 274 272 270 268 265 264 263 262 260
304 304 306 307 307 306 304 304 304 304 305 307 307 306 306 304 304 304 303 302 302 301 300 297 295 292 287 284 282 281 279 278 277 276 276 275 273 272 270 268 266 264 263 261
304 304 305 307 307 306 305 306 305 304 306 307 308 308 308 307 305 304 304 303 302 302 301 298 296 294 290 286 282 281 279 279 278 277 276 274 273 272 272 269 267 265 264 261
304 304 305 306 305 305 305 304 304 306 307 308 309 309 308 307 306 305 304 303 303 302 301 300 297 294 291 287 284 281 279 279 278 278 276 274 273 272 272 270 267 265 263 261
303 304 303 304 304 304 305 305 305 306 306 308 309 309 309 308 307 305 305 304 304 303 302 302 300 296 291 288 286 282 280 279 278 277 277 275 273 272 272 270 268 265 262 260
302 303 303 303 303 304 305 305 305 305 306 308 309 309 309 309 308 307 306 305 303 303 303 302 301 298 293 290 286 284 281 279 278 276 275 274 272 271 271 270 269 265 262 259
301 303 303 304 303 303 304 305 306 305 306 307 308 309 309 309 308 307 306 306 304 303 303 303 301 299 296 293 290 287 284 280 279 278 276 275 273 271 269 267 266 264 260 258
301 302 302 303 303 303 304 305 306 306 306 307 307 308 308 308 308 308 307 306 305 303 302 302 301 300 298 296 293 289 286 283 280 279 277 276 274 271 268 265 263 261 260 258
300 301 302 303 303 303 304 305 306 307 307 307 307 307 308 308 309 309 308 307 306 305 303 302 301 300 298 296 294 291 288 285 281 279 279 277 274 270 266 263 262 262 260 258
300 301 302 303 304 304 305 306 306 306 307 307 307 307 308 308 308 309 309 308 306 305 305 304 302 300 298 297 295 293 289 286 283 281 279 278 276 272 267 263 261 260 258 256
300 301 301 303 304 305 306 305 305 305 306 306 307 308 308 308 308 309 310 309 308 307 306 305 304 303 302 299 297 294 291 287 284 282 280 278 276 273 269 265 263 260 257 255
300 300 302 303 305 306 306 305 304 304 305 306 307 308 308 308 308 309 309 310 309 308 307 307 306 305 304 302 299 296 292 289 286 283 280 277 274 272 269 266 264 262 259 256
300 302 303 304 305 306 306 306 305 305 305 306 307 308 308 308 308 307 308 308 308 308 307 306 306 306 305 304 301 298 296 292 289 285 282 278 275 273 270 266 264 261 259 257
302 303 305 306 306 306 307 306 306 305 305 306 307 308 308 309 308 308 307 307 307 306 307 306 306 305 304 303 302 300 298 295 292 288 283 280 277 275 272 268 265 262 259 258
303 305 306 307 307 307 307 307 307 306 306 306 306 307 308 309 309 308 308 307 307 306 306 305 306 306 304 302 302 300 298 296 294 290 285 282 279 276 273 268 265 262 259 257
304 305 307 307 307 308 308 308 308 307 307 307 307 308 309 310 310 310 309 308 308 307 306 305 305 304 303 303 302 301 299 297 294 291 287 284 280 277 274 270 266 264 261 258
304 305 307 307 307 308 308 308 308 308 307 307 308 308 310 311 311 311 310 309 308 308 308 307 306 303 302 302 303 303 301 298 296 292 289 285 281 278 276 273 269 266 263 258
304 305 307 307 307 308 308 308 308 308 308 308 308 308 309 310 311 311 310 310 309 310 310 309 308 305 303 302 302 302 302 300 296 293 291 288 284 280 277 274 271 268 265 261
304 305 306 307 307 307 307 307 307 308 308 308 308 308 309 309 309 309 309 309 310 311 311 310 309 307 305 304 303 302 301 299 297 293 291 290 288 284 279 276 274 270 268 266
304 305 306 306 306 306 307 307 307 307 307 307 308 308 309 309 308 308 308 308 310 311 311 310 308 306 305 303 302 302 301 299 295 293 291 289 289 287 284 280 277 274 271 268
305 306 306 306 306 306 306 306 307 307 307 307 307 308 308 309 308 308 308 308 310 311 311 310 309 307 306 304 302 301 300 298 295 292 290 289 290 289 287 283 280 277 273 270
306 306 306 306 306 306 306 307 307 307 307 307 306 307 308 309 309 309 308 309 309 310 311 310 309 308 306 304 302 299 298 297 295 293 291 289 289 289 288 285 282 280 275 271
307 307 308 307 307 307 307 307 307 307 307 308 308 308 308 308 308 308 309 309 309 310 310 309 308 307 307 305 302 300 298 296 295 292 291 290 289 288 287 284 282 280 277 274
Height
5639 5635 5631 5627 5623 5619 5614 5609 5604 5601 5595 5590 5584 5579 5575 5570 5565 5560 5556 5551 5547 5543 5539 5536 5533 5530 5528 5526 5525 5523 5522 5521 5520 5519 5519 5519 5519 5520 5521 5521 5522 5524 5525 5526
5631 5627 5622 5618 5615 5610 5605 5600 5595 5590 5586 5581 5576 5570 5565 5560 5555 5550 5545 5540 5536 5532 5528 5524 5521 5518 5516 5514 5512 5511 5510 5508 5507 5507 5506 5506 5506 5506 5507 5508 5509 5510 5511 5513
5622 5618 5612 5609 5606 5601 5596 5591 5586 5581 5577 5571 5566 5560 5555 5550 5545 5540 5535 5530 5525 5521 5517 5513 5509 5507 5505 5503 5501 5499 5497 5496 5495 5495 5494 5494 5493 5494 5495 5496 5496 5497 5498 5500
5612 5608 5603 5602 5595 5591 5586 5582 5576 5571 5566 5561 5556 5550 5545 5540 5535 5529 5524 5519 5515 5510 5506 5502 5499 5496 5493 5491 5489 5488 5486 5485 5484 5484 5483 5483 5482 5482 5483 5484 5484 5485 5486 5487
5602 5597 5594 5591 5586 5581 5576 5572 5567 5562 5557 5551 5546 5541 5536 5530 5524 5519 5514 5509 5505 5500 5496 5492 5488 5485 5483 5481 5479 5478 5476 5475 5474 5473 5473 5472 5472 5472 5472 5473 5473 5474 5474 5475
5592 5586 5583 5582 5576 5570 5566 5562 5558 5552 5547 5542 5536 5532 5527 5520 5515 5509 5504 5500 5495 5490 5486 5482 5479 5476 5473 5471 5469 5468 5467 5466 5464 5464 5463 5462 5462 5462 5462 5462 5462 5463 5463 5464
5583 5577 5573 5571 5565 5561 5557 5554 5547 5542 5537 5532 5527 5522 5517 5511 5505 5500 5495 5491 5486 5482 5477 5473 5469 5466 5463 5461 5460 5459 5457 5456 5455 5454 5453 5453 5452 5452 5452 5452 5452 5453 5453 5454
5574 5569 5567 5561 5556 5552 5548 5542 5537 5532 5527 5523 5517 5512 5506 5501 5496 5491 5487 5482 5477 5473 5469 5464 5460 5457 5454 5452 5451 5449 5448 5447 5446 5445 5444 5443 5443 5442 5442 5442 5442 5443 5444 5445
5566 5563 5557 5552 5547 5543 5538 5533 5528 5524 5519 5514 5509 5503 5498 5493 5488 5483 5478 5474 5469 5465 5461 5457 5452 5449 5446 5443 5442 5440 5439 5438 5437 5436 5435 5434 5434 5433 5433 5433 5433 5434 5434 5435
5556 5553 5548 5543 5538 5533 5529 5524 5519 5514 5510 5505 5500 5494 5489 5484 5479 5475 5470 5466 5461 5457 5453 5449 5445 5441 5437 5435 5433 5432 5430 5429 5428 5427 5426 5425 5425 5424 5424 5424 5424 5425 5425 5427
5547 5543 5539 5534 5529 5525 5520 5515 5510 5506 5500 5495 5491 5486 5481 5476 5472 5467 5462 5457 5453 5448 5444 5441 5437 5433 5430 5427 5425 5423 5421 5420 5419 5418 5417 5416 5416 5416 5415 5416 5415 5416 5417 5418
5538 5534 5530 5526 5520 5516 5511 5507 5502 5497 5492 5487 5482 5478 5473 5468 5463 5458 5454 5449 5444 5440 5436 5432 5429 5425 5422 5419 5417 5415 5413 5412 5410 5409 5408 5407 5407 5407 5407 5407 5407 5408 5408 5409
5529 5524 5520 5516 5511 5507 5502 5498 5493 5488 5484 5479 5474 5469 5465 5460 5455 5450 5445 5441 5436 5432 5428 5424 5421 5417 5414 5411 5409 5407 5405 5403 5401 5400 5399 5399 5398 5398 5398 5399 5399 5400 5401 5402
5519 5515 5511 5507 5503 5498 5494 5489 5484 5480 5475 5470 5466 5461 5456 5452 5447 5442 5437 5433 5428 5424 5420 5416 5413 5409 5406 5403 5401 5398 5396 5394 5393 5392 5391 5390 5390 5389 5390 5390 5391 5392 5393 5394
5510 5506 5502 5498 5494 5489 5485 5480 5476 5471 5467 5462 5457 5453 5448 5443 5439 5434 5430 5425 5420 5416 5412 5409 5405 5402 5398 5396 5393 5390 5388 5386 5384 5383 5382 5382 5381 5381 5381 5382 5383 5384 5385 5386
5501 5497 5493 5489 5485 5480 5476 5471 5467 5462 5458 5453 5449 5444 5440 5435 5431 5426 5422 5417 5413 5409 5405 5401 5398 5394 5391 5388 5385 5382 5380 5378 5376 5375 5374 5373 5373 5373 5373 5374 5375 5375 5376 5378
5493 5489 5485 5480 5476 5471 5467 5462 5458 5453 5449 5445 5440 5436 5431 5427 5423 5418 5414 5410 5405 5402 5398 5394 5391 5387 5384 5380 5378 5375 5373 5370 5368 5367 5366 5365 5365 5365 5365 5365 5366 5367 5368 5369
5484 5480 5476 5471 5467 5463 5458 5453 5449 5445 5440 5436 5432 5428 5423 5419 5415 5410 5406 5402 5398 5394 5390 5387 5383 5380 5377 5373 5371 5368 5366 5364 5362 5360 5359 5358 5357 5357 5357 5357 5358 5359 5360 5361
5475 5471 5467 5462 5458 5454 5449 5445 5440 5436 5432 5428 5424 5420 5415 5411 5407 5402 5398 5394 5390 5387 5383 5379 5376 5373 5369 5367 5364 5361 5359 5357 5355 5353 5352 5351 5351 5350 5350 5350 5350 5350 5351 5352
5466 5462 5458 5454 5449 5445 5441 5436 5432 5428 5424 5420 5416 5412 5407 5403 5399 5394 5390 5386 5382 5379 5375 5372 5369 5365 5362 5360 5357 5355 5353 5351 5349 5347 5346 5345 5344 5344 5343 5343 5343 5343 5343 5344
5457 5453 5449 5445 5441 5436 5432 5428 5424 5420 5416 5412 5408 5404 5400 5395 5391 5387 5383 5379 5375 5371 5368 5365 5361 5358 5356 5353 5351 5349 5346 5345 5343 5342 5340 5339 5339 5338 5337 5337 5336 5336 5336 5337
5449 5445 5441 5437 5432 5428 5424 5420 5416 5412 5408 5404 5400 5396 5392 5388 5384 5380 5376 5372 5368 5365 5361 5358 5355 5352 5349 5347 5345 5343 5341 5339 5337 5336 5335 5334 5333 5332 5331 5331 5330 5330 5330 5330
5440 5436 5432 5428 5424 5420 5416 5412 5408 5404 5400 5396 5393 5389 5385 5381 5377 5373 5369 5365 5362 5358 5355 5352 5348 5346 5343 5341 5339 5337 5335 5334 5332 5331 5330 5329 5327 5326 5326 5325 5324 5324 5324 5324
5431 5427 5424 5420 5416 5412 5408 5404 5400 5396 5393 5389 5385 5381 5377 5373 5369 5365 5362 5359 5355 5352 5349 5345 5342 5340 5337 5335 5333 5332 5330 5328 5327 5325 5324 5323 5322 5321 5320 5319 5318 5318 5317 5317
5422 5419 5415 5411 5408 5404 5400 5396 5392 5389 5385 5381 5377 5373 5369 5366 5362 5359 5355 5352 5349 5346 5343 5340 5337 5334 5332 5330 5328 5326 5324 5322 5321 5320 5319 5318 5316 5315 5314 5313 5313 5312 5311 5311
5414 5411 5407 5403 5400 5396 5392 5388 5385 5381 5377 5373 5369 5365 5362 5358 5355 5352 5348 5345 5342 5340 5337 5334 5331 5328 5326 5324 5322 5320 5318 5317 5315 5314 5313 5312 5311 5310 5309 5308 5307 5306 5305 5305
5406 5403 5399 5395 5392 5388 5384 5381 5377 5373 5369 5366 5362 5358 5355 5351 5348 5345 5342 5339 5336 5333 5331 5328 5325 5323 5320 5318 5316 5314 5313 5311 5310 5309 5307 5306 5305 5304 5303 5302 5301 5300 5300 5299